[[{"header":{"parameterUnit":"m.s-1","parameterCategory":2,"la1":30.2991,"la2":30.254,"lo1":-89.0895,"lo2":-89.0444,"dy":0.0017,"dx":0.0017,"nx":28,"ny":28,"refTime":"2023-08-16T09:00:00:Z","depth":"0","parameterNumber":2,"parameterNumberName":"U-component_of_CURRENTS"},"data":[0,0,0,0,0,0,0,0,0,0,0,0,0,0,0,0,0,0,0,0,0,0,0,0,0,0,0,0,0,0,0,0,0,0,0,0,0,0,0,0,0,0,0,0,0,0,0,0,0,0,0,0,0,0,0,0,0,0,0.1827,0.1826,0,0.1748,0.1747,0.1746,0.169,0.169,0.169,0.169,0.1742,0.1744,0.1745,0,0,0,0,0,0,0,0,0,0,0,0,0,0.1745,0.1747,0.1827,0.1826,0.1825,0.1748,0.1747,0.1745,0.169,0.169,0.169,0.169,0.1742,0.1743,0.1745,0,0,0,0,0,0,0,0,0,0,0,0,0,0.1731,0.1748,0.1827,0.1792,0.1788,0.1749,0.1747,0.1745,0.169,0.169,0.169,0.169,0.1741,0.1743,0.1745,0.1761,0,0,0.1752,0.1753,0,0,0,0,0,0,0,0,0.1732,0.1734,0.1797,0.1794,0.179,0.1733,0.1737,0.1758,0.169,0.1723,0.169,0.169,0.1754,0.1755,0.1732,0.1763,0.1765,0.1752,0.1754,0.1754,0.1755,0,0,0,0,0,0,0,0.1734,0.1736,0.1791,0.1797,0.1792,0.1717,0.1716,0.1739,0.1739,0.172,0.1717,0.1715,0.1752,0.173,0.1734,0.1766,0.1752,0.1754,0.1755,0.1756,0.1845,0.1846,0,0,0,0,0,0,0.1762,0.1738,0.1794,0.1789,0.1765,0.172,0.1719,0.1748,0.1736,0.1734,0.1715,0.1713,0.1727,0.1731,0.1736,0.181,0.1754,0.1756,0.1758,0.1844,0.1845,0.1846,0,0,0,0,0,0,0.1761,0.1769,0.1797,0.1763,0.1762,0.1723,0.1755,0.1746,0.1726,0.1731,0.1731,0.1704,0.1727,0.1733,0.1788,0.181,0.1757,0.1759,0.1842,0.1844,0.1845,0.1922,0,0,0,0,0,0,0.176,0.177,0.179,0.1766,0.1765,0.1787,0.1755,0.1745,0.1727,0.1723,0.1723,0.1727,0.1727,0.1785,0.179,0.1812,0.1761,0.1841,0.1843,0.1845,0.1919,0.1926,0.1933,0,0,0,0,0,0.1758,0.1757,0.1792,0.1798,0.1799,0.1788,0.178,0.1746,0.1727,0.1725,0.1745,0.1727,0.18,0.1789,0.1795,0.1817,0.184,0.1843,0.1845,0.1915,0.1925,0.1933,0,0,0,0,0,0,0.1711,0.1752,0.1789,0.1801,0.1815,0.178,0.1755,0.175,0.1755,0.1757,0.1758,0.1765,0.182,0.1807,0.1795,0.1845,0.181,0.1813,0.1861,0.187,0.1877,0.1869,0.1763,0,0,0,0,0,0.1726,0.1751,0.1782,0.1795,0.1801,0.1789,0.1775,0.1774,0.1777,0.1774,0.1779,0.1793,0.183,0.1844,0.1867,0.1902,0.1899,0.1912,0.1919,0.1926,0.1922,0.1947,0.1956,0.1854,0.1854,0.1854,0,0,0.1698,0.1737,0.1741,0.179,0.1786,0.1807,0.1777,0.177,0.1803,0.1786,0.1815,0.1829,0.1848,0.1894,0.1913,0.1888,0.1958,0.1929,0.1934,0.1926,0.195,0.196,0.1969,0.1855,0.1855,0.1855,0,0,0.168,0.1709,0.1739,0.1775,0.1813,0.18,0.1809,0.1806,0.1816,0.1857,0.1866,0.1898,0.1919,0.195,0.1967,0.2026,0.2005,0.202,0.2045,0.2071,0.2079,0.2087,0.2118,0.2127,0.2013,0.2013,0.2014,0,0.1678,0.1718,0.1737,0.1801,0.1803,0.1807,0.1827,0.1856,0.1877,0.1889,0.1876,0.1918,0.1946,0.2013,0.2039,0.2044,0.2051,0.2016,0.2081,0.2088,0.2095,0.2124,0.2134,0.2017,0.2017,0.2017,0.2016,0,0.1695,0.1745,0.175,0.1841,0.1844,0.1853,0.1902,0.1918,0.1909,0.1932,0.1981,0.2013,0.2025,0.2048,0.2068,0.213,0.212,0.2099,0.2061,0.211,0.2138,0.2147,0.2023,0.2022,0.2021,0.202,0,0,0.1657,0.1752,0.1766,0.1796,0.1862,0.1852,0.1914,0.1941,0.1973,0.2001,0.202,0.2097,0.2089,0.2109,0.2134,0.2165,0.2243,0.2153,0.2153,0.2188,0.2304,0.2345,0.2358,0.2231,0.2233,0.2234,0.2313,0,0.1674,0.1766,0.1802,0.1838,0.185,0.1883,0.1929,0.1974,0.1999,0.2034,0.2075,0.2113,0.2127,0.2134,0.2174,0.2234,0.2264,0.2223,0.2246,0.2247,0.2282,0.2369,0.2258,0.2323,0.2322,0.2323,0.2324,0,0.1655,0.173,0.1775,0.1816,0.1824,0.1854,0.1867,0.192,0.2008,0.2038,0.2078,0.2112,0.2193,0.2171,0.2283,0.2254,0.2282,0.2312,0.2315,0.2328,0.2305,0.2269,0.2338,0.2322,0.2337,0.2336,0.2335,0,0.1548,0.1662,0.1674,0.171,0.1798,0.181,0.1825,0.1906,0.1951,0.2037,0.2064,0.215,0.2178,0.2242,0.2331,0.2304,0.2435,0.2397,0.2454,0.2457,0.2353,0.2345,0.2409,0.2446,0.2446,0.2445,0.2445,0,0.1502,0.1523,0.1637,0.1671,0.1698,0.1743,0.1768,0.1837,0.1911,0.1969,0.2052,0.2103,0.2193,0.2281,0.2346,0.2457,0.2448,0.2484,0.249,0.238,0.2374,0.2346,0.2313,0.2448,0.2448,0.2447,0.2447,0,0.1393,0.1469,0.1513,0.1625,0.1655,0.167,0.1744,0.177,0.1857,0.1932,0.1955,0.2074,0.2199,0.231,0.2423,0.2474,0.2519,0.2596,0.2477,0.2469,0.2509,0.2483,0.2412,0.2361,0.2676,0.2678,0.2679,0,0.134,0.1355,0.1487,0.1523,0.1588,0.1624,0.1654,0.1741,0.1785,0.192,0.1952,0.208,0.2172,0.238,0.2493,0.2632,0.2554,0.2609,0.2543,0.253,0.2504,0.2369,0.232,0.2434,0.2434,0.2433,0.2433,0,0.1273,0.1324,0.1397,0.1477,0.1522,0.1566,0.1621,0.1649,0.1748,0.1824,0.1922,0.1993,0.2196,0.2294,0.2494,0.2562,0.2498,0.2604,0.2599,0.2347,0.2188,0.2135,0.2375,0.2427,0.2428,0.2428,0.2429,0.2429,0.1225,0.1264,0.1349,0.1414,0.1456,0.1482,0.1488,0.155,0.1602,0.1694,0.1825,0.1916,0.2109,0.2364,0.2422,0.2515,0.2471,0.2492,0.2471,0.2345,0.2263,0.2524,0.2582,0.2584,0.2585,0.2586,0.2587,0,0.1159,0.1209,0.1266,0.1336,0.1326,0.1392,0.1439,0.1426,0.1453,0.159,0.1671,0.1875,0.201,0.2181,0.2382,0.2386,0.224,0.2375,0.2132,0.2101,0.2348,0.231,0.2299,0.2299,0.2299,0.2299,0.2299,0.2299,0.1137,0.116,0.1202,0.1184,0.1211,0.1186,0.1195,0.1215,0.1291,0.1388,0.151,0.1649,0.197,0.2213,0.2297,0.2265,0.2125,0.204,0.2079,0.2245,0.2252,0.2259,0.2218,0.2188,0.2188,0.171,0.1707,0.1705]},{"header":{"parameterUnit":"m.s-1","parameterCategory":2,"la1":30.2991,"la2":30.254,"lo1":-89.0895,"lo2":-89.0444,"dy":0.0017,"dx":0.0017,"nx":28,"ny":28,"refTime":"2023-08-16T09:00:00:Z","depth":"0","parameterNumber":3,"parameterNumberName":"V-component_of_CURRENTS"},"data":[0,0,0,0,0,0,0,0,0,0,0,0,0,0,0,0,0,0,0,0,0,0,0,0,0,0,0,0,0,0,0,0,0,0,0,0,0,0,0,0,0,0,0,0,0,0,0,0,0,0,0,0,0,0,0,0,0,0,-0.0033,-0.0033,0,-0.0034,-0.0034,-0.0035,-0.0053,-0.0053,-0.0053,-0.0053,-0.0057,-0.0057,-0.0057,0,0,0,0,0,0,0,0,0,0,0,0,0,-0.0135,-0.0133,-0.0033,-0.0033,-0.0032,-0.0034,-0.0034,-0.0035,-0.0053,-0.0053,-0.0053,-0.0053,-0.0057,-0.0057,-0.0057,0,0,0,0,0,0,0,0,0,0,0,0,0,-0.0113,-0.0132,-0.0033,-0.0038,-0.0038,-0.0034,-0.0034,-0.0035,-0.0053,-0.0053,-0.0053,-0.0053,-0.0057,-0.0057,-0.0057,-0.0057,0,0,-0.0058,-0.0058,0,0,0,0,0,0,0,0,-0.0114,-0.0109,-0.0038,-0.0038,-0.0038,-0.0039,-0.0071,-0.0041,-0.0053,-0.0052,-0.0053,-0.0053,-0.0048,-0.0049,-0.0056,-0.0057,-0.0057,-0.0058,-0.0058,-0.0058,-0.0058,0,0,0,0,0,0,0,-0.0115,-0.011,-0.0038,-0.0037,-0.0037,-0.007,-0.0066,-0.0066,-0.0054,-0.0052,-0.0052,-0.0045,-0.0049,-0.0056,-0.0056,-0.0057,-0.0058,-0.0058,-0.0058,-0.0058,0.0014,0.0015,0,0,0,0,0,0,-0.0101,-0.0111,-0.0038,-0.0038,-0.0071,-0.0067,-0.0064,-0.0042,-0.0053,-0.0054,-0.0045,-0.0046,-0.0055,-0.0056,-0.0056,-0.0017,-0.0058,-0.0058,-0.0058,0.0012,0.0014,0.0016,0,0,0,0,0,0,-0.0103,-0.0094,-0.0038,-0.0072,-0.0066,-0.0064,-0.0041,-0.0042,-0.0042,-0.0047,-0.0049,-0.0042,-0.0056,-0.0056,-0.0041,-0.0018,-0.0058,-0.0058,0.0009,0.0012,0.0015,0.0037,0,0,0,0,0,0,-0.0105,-0.0094,-0.0078,-0.007,-0.0064,-0.0035,-0.004,-0.0042,-0.0035,-0.0037,-0.0045,-0.0046,-0.0056,-0.004,-0.0041,-0.0019,-0.0058,0.0007,0.0011,0.0014,0.0034,0.0041,0.0046,0,0,0,0,0,-0.0109,-0.0084,-0.0077,-0.0068,-0.0039,-0.0034,-0.0035,-0.0038,-0.0035,-0.0038,-0.003,-0.0045,-0.0016,-0.0039,-0.004,-0.0018,0.0005,0.0009,0.0014,0.0031,0.0039,0.0046,0,0,0,0,0,0,-0.011,-0.0083,-0.0075,-0.004,-0.0036,-0.0035,-0.0026,-0.0031,-0.0029,-0.0027,-0.0032,-0.0032,-0.0007,-0.0009,-0.0034,0.0019,-0.0003,0.0001,0.0011,0.0018,0.0024,0.001,-0.0058,0,0,0,0,0,-0.0102,-0.0088,-0.0065,-0.0042,-0.0027,-0.0026,-0.0023,-0.003,-0.0024,-0.0024,-0.0024,-0.0011,0.0011,0.0015,0.0026,0.0045,0.002,0.0066,0.0072,0.0077,0.0069,0.0052,0.0055,0.0031,0.0031,0.0031,0,0,-0.0091,-0.0081,-0.0067,-0.0044,-0.0033,-0.0006,-0.0025,-0.0018,-0.0006,-0.0023,-0.0001,0.0005,0.0022,0.0048,0.006,0.0047,0.0074,0.0082,0.0086,0.0075,0.0057,0.0059,0.006,0.0034,0.0033,0.0033,0,0,-0.0078,-0.005,-0.0034,-0.0024,-0.0012,-0.0001,0.0006,0.0013,0.0008,0.0021,0.003,0.0045,0.0067,0.0081,0.0095,0.0143,0.0107,0.016,0.0173,0.0157,0.0158,0.0158,0.0129,0.0127,0.0162,0.0162,0.0162,0,-0.0079,-0.0038,-0.0032,-0.0013,0.0011,0.0012,0.0043,0.0042,0.0044,0.0045,0.0033,0.0077,0.0082,0.0128,0.0145,0.0153,0.0133,0.0138,0.0161,0.0161,0.016,0.0131,0.0128,0.0163,0.0163,0.0163,0.0163,0,-0.0041,-0.0015,0.0001,0.0036,0.0058,0.0078,0.0098,0.0102,0.0103,0.0098,0.012,0.0122,0.0142,0.0161,0.0163,0.0187,0.0169,0.0167,0.0131,0.0163,0.0131,0.0127,0.0166,0.0165,0.0164,0.0164,0,0,-0.0037,0.0013,0.0016,0.0046,0.0085,0.0108,0.0138,0.0164,0.0184,0.0167,0.019,0.0211,0.0191,0.0207,0.0214,0.0204,0.0183,0.0183,0.0182,0.0134,0.0135,0.0131,0.0126,0.018,0.018,0.0179,0.0112,0,-0.0014,0.0026,0.0052,0.0114,0.0157,0.0174,0.0205,0.0218,0.0226,0.0242,0.0226,0.025,0.0218,0.023,0.0211,0.0199,0.0175,0.0201,0.0129,0.0126,0.0101,0.0122,0.0139,0.0081,0.0108,0.0107,0.0107,0,0.0026,0.0045,0.01,0.016,0.0183,0.0215,0.0274,0.0295,0.0309,0.031,0.0308,0.0296,0.0287,0.0257,0.02,0.0216,0.017,0.0148,0.0144,0.0126,0.0115,0.0056,0.0073,-0.0002,0.01,0.0101,0.0101,0,0.0044,0.0091,0.0135,0.0157,0.022,0.024,0.0272,0.0304,0.033,0.0349,0.0366,0.034,0.0335,0.0269,0.0199,0.0197,0.0133,0.0124,0.0073,0.0071,0.0064,0.0063,-0.0019,0.0074,0.0074,0.0074,0.0074,0,0.0077,0.0113,0.0138,0.0169,0.0215,0.0254,0.0309,0.0331,0.037,0.0413,0.0391,0.0415,0.0337,0.029,0.0212,0.0126,0.0129,0.007,0.0056,0.0075,0.0076,-0.0006,-0.0051,0.0071,0.0072,0.0072,0.0073,0,0.0096,0.0117,0.0172,0.0217,0.023,0.0262,0.0329,0.0367,0.0398,0.0456,0.0461,0.0462,0.0406,0.0317,0.0228,0.0152,0.0031,0.0039,0.0061,0.0051,-0.0065,-0.0108,-0.0208,-0.0222,-0.0036,-0.0036,-0.0037,0,0.0112,0.0138,0.0189,0.0224,0.0244,0.0291,0.0323,0.0369,0.0417,0.0487,0.0514,0.049,0.0492,0.0351,0.0213,0.0071,0.0014,-0.0,0.0001,-0.0075,-0.0133,-0.0156,-0.0161,-0.0005,-0.0005,-0.0005,-0.0005,0,0.0143,0.0154,0.0189,0.0244,0.0287,0.0341,0.039,0.043,0.0494,0.0546,0.061,0.0622,0.0505,0.0396,0.0213,0.0109,-0.0041,-0.0006,-0.0087,-0.012,-0.0148,-0.0166,0.003,-0.0006,-0.0006,-0.0006,-0.0005,-0.0005,0.0153,0.0174,0.022,0.0273,0.0328,0.0392,0.0438,0.0499,0.0574,0.0664,0.0674,0.073,0.0582,0.0342,0.0184,-0.0066,-0.0066,-0.0126,-0.0176,-0.0195,-0.0196,-0.0007,-0.0051,-0.0051,-0.0051,-0.0051,-0.0051,0,0.0168,0.0195,0.0255,0.0326,0.0392,0.0413,0.049,0.0542,0.0626,0.0725,0.0785,0.08,0.0569,0.035,0.0009,-0.0183,-0.0244,-0.0288,-0.032,-0.0319,-0.0156,-0.014,-0.0201,-0.0201,-0.0201,-0.0201,-0.0201,-0.0201,0.0191,0.0234,0.0261,0.0367,0.0421,0.0499,0.0542,0.0615,0.0702,0.085,0.0948,0.1017,0.0948,0.0223,-0.0214,-0.0336,-0.0447,-0.0497,-0.0545,-0.0445,-0.0434,-0.0423,-0.0418,-0.0537,-0.0537,-0.0662,-0.0664,-0.0665]}],[{"header":{"parameterUnit":"m.s-1","parameterCategory":2,"la1":30.2991,"la2":30.254,"lo1":-89.0895,"lo2":-89.0444,"dy":0.0017,"dx":0.0017,"nx":28,"ny":28,"refTime":"2023-08-16T09:00:00:Z","depth":"2","parameterNumber":2,"parameterNumberName":"U-component_of_CURRENTS"},"data":[0,0,0,0,0,0,0,0,0,0,0,0,0,0,0,0,0,0,0,0,0,0,0,0,0,0,0,0,0,0,0,0,0,0,0,0,0,0,0,0,0,0,0,0,0,0,0,0,0,0,0,0,0,0,0,0,0,0,0.0544,0.0552,0,0.0806,0.0803,0.08,0.0732,0.0733,0.0734,0.0735,0.0827,0.0828,0.083,0,0,0,0,0,0,0,0,0,0,0,0,0,0.0346,0.0341,0.0543,0.0553,0.0562,0.0806,0.0803,0.08,0.0732,0.0733,0.0735,0.0736,0.0827,0.0828,0.083,0,0,0,0,0,0,0,0,0,0,0,0,0,0.0434,0.034,0.0541,0.0609,0.0623,0.0807,0.0803,0.0799,0.0731,0.0733,0.0735,0.0737,0.0826,0.0828,0.083,0.0806,0,0,0.0836,0.0837,0,0,0,0,0,0,0,0,0.0429,0.0432,0.059,0.0606,0.0622,0.0799,0.0772,0.0817,0.0731,0.0616,0.0735,0.0738,0.0847,0.0847,0.0795,0.081,0.0814,0.0836,0.0837,0.0838,0.0839,0,0,0,0,0,0,0,0.0422,0.0424,0.0576,0.0602,0.0622,0.0758,0.0759,0.0776,0.066,0.0626,0.064,0.0779,0.0844,0.0792,0.0797,0.0816,0.0836,0.0838,0.0839,0.084,0.0974,0.0977,0,0,0,0,0,0,0.0508,0.0415,0.0569,0.0591,0.0607,0.0763,0.0763,0.0683,0.0664,0.0685,0.0778,0.0777,0.0788,0.0795,0.0801,0.0918,0.0838,0.084,0.0841,0.0972,0.0975,0.0978,0,0,0,0,0,0,0.0498,0.0509,0.056,0.058,0.0605,0.0768,0.0678,0.0689,0.0664,0.0795,0.0797,0.0755,0.079,0.0798,0.076,0.0916,0.0841,0.0843,0.0969,0.0973,0.0976,0.106,0,0,0,0,0,0,0.0486,0.0497,0.0492,0.0577,0.0609,0.0652,0.0685,0.0696,0.0782,0.0779,0.0777,0.0785,0.0792,0.0756,0.0762,0.0918,0.0844,0.0966,0.0971,0.0975,0.1054,0.1066,0.1076,0,0,0,0,0,0.0474,0.0561,0.0481,0.0512,0.0576,0.066,0.0674,0.0762,0.078,0.0736,0.071,0.0786,0.0796,0.0753,0.0761,0.0923,0.0964,0.097,0.0975,0.1049,0.1064,0.1076,0,0,0,0,0,0,0.0464,0.057,0.0486,0.0577,0.0584,0.0674,0.0787,0.0765,0.0703,0.0727,0.0731,0.0734,0.0807,0.0807,0.0762,0.0977,0.0929,0.0936,0.0984,0.0998,0.1009,0.0996,0.0846,0,0,0,0,0,0.0455,0.051,0.0555,0.0596,0.0639,0.066,0.0732,0.0736,0.0748,0.0722,0.0749,0.0788,0.0832,0.0853,0.0892,0.0937,0.0925,0.1072,0.1083,0.1092,0.1087,0.105,0.1056,0.0995,0.0995,0.0995,0,0,0.0497,0.0548,0.0591,0.0603,0.0633,0.0673,0.0685,0.0793,0.0766,0.0751,0.0753,0.0822,0.0846,0.0923,0.0966,0.0939,0.113,0.1099,0.1107,0.1096,0.1056,0.1061,0.1066,0.0999,0.0998,0.0998,0,0,0.0528,0.0588,0.058,0.0629,0.0717,0.0762,0.0784,0.084,0.0796,0.0804,0.0822,0.0919,0.0989,0.1027,0.1056,0.1137,0.1189,0.123,0.1273,0.1238,0.1241,0.1244,0.1339,0.1349,0.1232,0.1232,0.1232,0,0.0564,0.0551,0.0599,0.06,0.0755,0.0789,0.0825,0.0772,0.079,0.0797,0.0838,0.1014,0.105,0.1124,0.1171,0.1176,0.1177,0.122,0.1248,0.125,0.1251,0.1346,0.1356,0.1237,0.1236,0.1236,0.1235,0,0.057,0.0587,0.0658,0.0645,0.0712,0.0866,0.0847,0.0856,0.0929,0.093,0.1043,0.1083,0.1203,0.1283,0.1248,0.1331,0.1346,0.1266,0.1206,0.1261,0.1361,0.137,0.1243,0.1242,0.124,0.1239,0,0,0.0661,0.0663,0.0702,0.0658,0.0842,0.086,0.0891,0.0935,0.0934,0.1035,0.1111,0.1233,0.1326,0.1357,0.139,0.1374,0.1438,0.1327,0.1323,0.1411,0.1445,0.1395,0.14,0.1331,0.133,0.133,0.1548,0,0.0687,0.0694,0.0734,0.0783,0.0825,0.0939,0.0929,0.0938,0.1011,0.1075,0.1187,0.1293,0.1314,0.1429,0.1415,0.1437,0.1446,0.1392,0.1388,0.1391,0.1324,0.1401,0.1266,0.1437,0.1557,0.1558,0.1559,0,0.0713,0.0741,0.0786,0.0797,0.0831,0.0872,0.1003,0.0986,0.106,0.1087,0.1259,0.1361,0.1492,0.1454,0.1523,0.1481,0.1469,0.1465,0.1471,0.1382,0.135,0.1382,0.1447,0.1573,0.1572,0.1571,0.157,0,0.0743,0.0794,0.085,0.0916,0.0924,0.095,0.1023,0.106,0.1061,0.1162,0.1259,0.1389,0.1501,0.1517,0.1609,0.1551,0.1651,0.1565,0.1523,0.1526,0.139,0.1377,0.154,0.154,0.1539,0.1538,0.1538,0,0.0854,0.0883,0.0861,0.0901,0.0962,0.0954,0.1027,0.1033,0.1138,0.121,0.1295,0.1403,0.1487,0.1608,0.1646,0.1669,0.1694,0.1559,0.1551,0.143,0.1419,0.1481,0.1471,0.1547,0.1545,0.1543,0.1542,0,0.084,0.0862,0.0867,0.0906,0.0937,0.0979,0.11,0.1123,0.1163,0.1299,0.1377,0.1452,0.1536,0.1651,0.17,0.1696,0.1747,0.1719,0.1654,0.1629,0.1655,0.1647,0.1718,0.1717,0.1717,0.1716,0.1716,0,0.0837,0.0837,0.0876,0.0899,0.0945,0.1036,0.1095,0.1164,0.1217,0.1345,0.1417,0.1534,0.1571,0.1669,0.1651,0.1724,0.1737,0.166,0.1472,0.1675,0.1661,0.1654,0.1648,0.1405,0.1402,0.14,0.1398,0,0.0835,0.0838,0.0836,0.0925,0.0987,0.1061,0.1178,0.1221,0.1315,0.1371,0.1472,0.154,0.1542,0.1502,0.1527,0.1548,0.1649,0.1607,0.1821,0.1344,0.1384,0.1369,0.1372,0.1377,0.1379,0.1381,0.1382,0.1383,0.0839,0.086,0.0856,0.0941,0.0999,0.1072,0.1113,0.1189,0.1264,0.1326,0.1447,0.1432,0.1406,0.1293,0.1334,0.1375,0.141,0.1414,0.1419,0.1428,0.1314,0.1345,0.1322,0.1324,0.1325,0.1327,0.1328,0,0.0859,0.0865,0.0898,0.0946,0.0978,0.1047,0.1126,0.1124,0.1155,0.1247,0.1284,0.116,0.1097,0.1128,0.1108,0.1125,0.109,0.115,0.11,0.112,0.1139,0.1008,0.0937,0.0936,0.0935,0.0934,0,0,0.0846,0.0869,0.0887,0.0916,0.0948,0.097,0.0991,0.0977,0.1003,0.0989,0.0998,0.1015,0.1065,0.0955,0.0952,0.0967,0.104,0.0944,0.1251,0.1209,0.1227,0.1279,0.1098,0,0,0,0,0]},{"header":{"parameterUnit":"m.s-1","parameterCategory":2,"la1":30.2991,"la2":30.254,"lo1":-89.0895,"lo2":-89.0444,"dy":0.0017,"dx":0.0017,"nx":28,"ny":28,"refTime":"2023-08-16T09:00:00:Z","depth":"2","parameterNumber":3,"parameterNumberName":"V-component_of_CURRENTS"},"data":[0,0,0,0,0,0,0,0,0,0,0,0,0,0,0,0,0,0,0,0,0,0,0,0,0,0,0,0,0,0,0,0,0,0,0,0,0,0,0,0,0,0,0,0,0,0,0,0,0,0,0,0,0,0,0,0,0,0,-0.0137,-0.0137,0,-0.015,-0.015,-0.015,-0.0142,-0.0141,-0.0141,-0.014,-0.0195,-0.0197,-0.0199,0,0,0,0,0,0,0,0,0,0,0,0,0,-0.0162,-0.0162,-0.0137,-0.0137,-0.0137,-0.015,-0.015,-0.015,-0.0142,-0.0141,-0.0141,-0.014,-0.0195,-0.0197,-0.0199,0,0,0,0,0,0,0,0,0,0,0,0,0,-0.0161,-0.0161,-0.0137,-0.0134,-0.0134,-0.015,-0.015,-0.015,-0.0142,-0.0141,-0.0141,-0.014,-0.0194,-0.0197,-0.0199,-0.0229,0,0,-0.0208,-0.0209,0,0,0,0,0,0,0,0,-0.0161,-0.016,-0.0134,-0.0134,-0.0134,-0.0143,-0.0179,-0.0178,-0.0142,-0.0139,-0.014,-0.014,-0.0182,-0.0186,-0.0189,-0.0231,-0.0233,-0.0208,-0.021,-0.0211,-0.0212,0,0,0,0,0,0,0,-0.0161,-0.016,-0.0142,-0.0135,-0.0135,-0.0152,-0.0151,-0.0179,-0.0165,-0.0139,-0.0139,-0.014,-0.0182,-0.0187,-0.0191,-0.0234,-0.0208,-0.021,-0.0212,-0.0213,-0.0203,-0.0201,0,0,0,0,0,0,-0.0156,-0.0159,-0.0142,-0.0142,-0.0146,-0.0152,-0.015,-0.0141,-0.0164,-0.0166,-0.014,-0.014,-0.0182,-0.0187,-0.0193,-0.0182,-0.0211,-0.0213,-0.0215,-0.0205,-0.0202,-0.02,0,0,0,0,0,0,-0.0157,-0.0154,-0.0141,-0.0152,-0.0151,-0.0152,-0.0142,-0.0142,-0.0135,-0.0164,-0.0167,-0.0133,-0.0182,-0.0189,-0.0238,-0.0186,-0.0215,-0.0217,-0.0207,-0.0204,-0.0201,-0.0191,0,0,0,0,0,0,-0.0157,-0.0154,-0.0185,-0.0151,-0.015,-0.0145,-0.0142,-0.0142,-0.0138,-0.0136,-0.0159,-0.0164,-0.0182,-0.0234,-0.0241,-0.019,-0.0219,-0.021,-0.0206,-0.0202,-0.0194,-0.0189,-0.0184,0,0,0,0,0,-0.0158,-0.0142,-0.0186,-0.0186,-0.0179,-0.0145,-0.0147,-0.0146,-0.0138,-0.0137,-0.0172,-0.0162,-0.0212,-0.0238,-0.0245,-0.0194,-0.0211,-0.0207,-0.0203,-0.0197,-0.019,-0.0184,0,0,0,0,0,0,-0.0157,-0.0141,-0.0186,-0.0171,-0.0178,-0.0144,-0.0132,-0.0141,-0.0164,-0.016,-0.0189,-0.0198,-0.0204,-0.0207,-0.0234,-0.0172,-0.0188,-0.0186,-0.018,-0.0174,-0.0169,-0.0166,-0.0222,0,0,0,0,0,-0.0183,-0.017,-0.0175,-0.0168,-0.0159,-0.0157,-0.0155,-0.0152,-0.0152,-0.0159,-0.0184,-0.0189,-0.0191,-0.0196,-0.0206,-0.0208,-0.0228,-0.0159,-0.0154,-0.015,-0.0148,-0.0183,-0.0182,-0.0186,-0.0186,-0.0186,0,0,-0.0165,-0.0173,-0.0159,-0.0172,-0.016,-0.0141,-0.015,-0.0117,-0.0124,-0.0164,-0.0181,-0.019,-0.0191,-0.0186,-0.0182,-0.0185,-0.0151,-0.0144,-0.0141,-0.0141,-0.0179,-0.0179,-0.0179,-0.0183,-0.0184,-0.0184,0,0,-0.0116,-0.0138,-0.0118,-0.0132,-0.0139,-0.0121,-0.011,-0.0095,-0.0112,-0.0142,-0.0152,-0.0153,-0.0166,-0.0158,-0.0151,-0.0123,-0.0132,-0.0087,-0.0058,-0.0093,-0.0094,-0.0095,-0.0102,-0.0104,-0.0075,-0.0075,-0.0075,0,-0.013,-0.0113,-0.0109,-0.0114,-0.0104,-0.0103,-0.0073,-0.0093,-0.0113,-0.0127,-0.0139,-0.0135,-0.0145,-0.0122,-0.0103,-0.0111,-0.0131,-0.0092,-0.0091,-0.0093,-0.0095,-0.0101,-0.0104,-0.0074,-0.0074,-0.0074,-0.0074,0,-0.0079,-0.009,-0.0057,-0.0066,-0.0047,-0.0015,-0.0024,-0.0034,-0.0039,-0.0064,-0.007,-0.0098,-0.0088,-0.0064,-0.0083,-0.0063,-0.0073,-0.0095,-0.012,-0.0095,-0.0101,-0.0104,-0.0072,-0.0073,-0.0073,-0.0073,0,0,-0.0052,-0.0033,-0.0038,-0.0041,-0.0024,0.0012,0.0021,0.0027,0.0021,-0.001,-0.0,-0.0008,-0.0022,-0.0014,-0.002,-0.0038,-0.0063,-0.0067,-0.0069,-0.0095,-0.0127,-0.0125,-0.0128,-0.0102,-0.0103,-0.0103,-0.0122,0,-0.0037,-0.0029,-0.0008,0.0032,0.0059,0.0067,0.0069,0.0066,0.0056,0.0048,0.0034,0.0036,-0.0004,0.0014,-0.0018,-0.0053,-0.0073,-0.0055,-0.0128,-0.0129,-0.015,-0.0133,-0.0119,-0.0134,-0.0125,-0.0126,-0.0126,0,-0.0016,-0.0014,0.0024,0.0063,0.0079,0.0104,0.0145,0.0138,0.0123,0.0102,0.0104,0.0092,0.0084,0.0047,-0.0031,-0.0024,-0.0073,-0.0105,-0.0108,-0.0115,-0.0134,-0.0158,-0.0141,-0.0132,-0.0131,-0.0131,-0.0131,0,-0.0001,0.0018,0.0056,0.0057,0.0097,0.0122,0.0155,0.0155,0.0156,0.0152,0.0173,0.013,0.0138,0.0053,-0.0018,-0.0031,-0.0103,-0.0129,-0.017,-0.0169,-0.0173,-0.0172,-0.0187,-0.0187,-0.0187,-0.0187,-0.0187,0,0.0008,0.0035,0.0053,0.0061,0.0103,0.0137,0.0184,0.0175,0.0199,0.0227,0.02,0.0226,0.0133,0.0092,0.0002,-0.0092,-0.0099,-0.0161,-0.0179,-0.0164,-0.0161,-0.0175,-0.0174,-0.0188,-0.0188,-0.0188,-0.0188,0,0.003,0.0035,0.0075,0.0104,0.0113,0.015,0.022,0.0241,0.0243,0.0296,0.0313,0.0296,0.0229,0.0137,0.0025,-0.0051,-0.0143,-0.0173,-0.0131,-0.0144,-0.0187,-0.0184,-0.0218,-0.0218,-0.0218,-0.0218,-0.0218,0,0.0042,0.0056,0.0092,0.0127,0.0148,0.02,0.0231,0.0252,0.0288,0.0342,0.0373,0.0353,0.0334,0.0176,0.0036,-0.011,-0.0139,-0.0174,-0.0198,-0.0178,-0.0192,-0.0189,-0.0186,-0.0188,-0.0188,-0.0188,-0.0188,0,0.0069,0.0079,0.0101,0.0158,0.0208,0.0265,0.0317,0.0348,0.039,0.0432,0.049,0.0496,0.0362,0.0222,0.0027,-0.0067,-0.0154,-0.0176,-0.0179,-0.0182,-0.0153,-0.0165,-0.0163,-0.0187,-0.0187,-0.0187,-0.0187,-0.0187,0.0084,0.0104,0.0137,0.0199,0.0259,0.033,0.0379,0.0433,0.0494,0.0557,0.0561,0.0565,0.0391,0.0146,-0.001,-0.0143,-0.0148,-0.0201,-0.0201,-0.0201,-0.0194,-0.0166,-0.02,-0.02,-0.02,-0.0201,-0.0201,0,0.0105,0.0131,0.0188,0.0263,0.0339,0.0364,0.0436,0.0485,0.0557,0.0611,0.0645,0.0512,0.0337,0.0167,-0.0031,-0.017,-0.0178,-0.0207,-0.0196,-0.0196,-0.0197,-0.0189,-0.0194,-0.0195,-0.0195,-0.0195,0,0,0.013,0.0175,0.0201,0.0317,0.0376,0.0462,0.0504,0.0562,0.0613,0.0672,0.0683,0.0599,0.0395,0.0233,0.0031,-0.0064,-0.0088,-0.0079,-0.007,-0.0034,-0.0032,-0.0182,-0.0169,0,0,0,0,0]}],[{"header":{"parameterUnit":"m.s-1","parameterCategory":2,"la1":30.2991,"la2":30.254,"lo1":-89.0895,"lo2":-89.0444,"dy":0.0017,"dx":0.0017,"nx":28,"ny":28,"refTime":"2023-08-16T09:00:00:Z","depth":"4","parameterNumber":2,"parameterNumberName":"U-component_of_CURRENTS"},"data":[0,0,0,0,0,0,0,0,0,0,0,0,0,0,0,0,0,0,0,0,0,0,0,0,0,0,0,0,0,0,0,0,0,0,0,0,0,0,0,0,0,0,0,0,0,0,0,0,0,0,0,0,0,0,0,0,0,0,-0.059,-0.0591,0,-0.0632,-0.0632,-0.0632,-0.0632,-0.0631,-0.0631,-0.0631,-0.0686,-0.0688,-0.0689,0,0,0,0,0,0,0,0,0,0,0,0,0,-0.0502,-0.0503,-0.059,-0.0591,-0.0592,-0.0632,-0.0632,-0.0632,-0.0632,-0.0631,-0.0631,-0.0631,-0.0686,-0.0687,-0.0689,0,0,0,0,0,0,0,0,0,0,0,0,0,-0.0537,-0.0504,-0.059,-0.06,-0.0602,-0.0632,-0.0632,-0.0632,-0.0632,-0.0631,-0.0631,-0.0631,-0.0685,-0.0687,-0.069,-0.0707,0,0,-0.0697,-0.0698,0,0,0,0,0,0,0,0,-0.0535,-0.054,-0.0597,-0.0599,-0.0601,-0.0631,-0.0622,-0.066,-0.0632,-0.0615,-0.0631,-0.0631,-0.0672,-0.0676,-0.0676,-0.071,-0.0712,-0.0697,-0.0698,-0.0699,-0.07,0,0,0,0,0,0,0,-0.0533,-0.0538,-0.0601,-0.0599,-0.0601,-0.0601,-0.0605,-0.0628,-0.064,-0.0616,-0.0618,-0.063,-0.0673,-0.0674,-0.0678,-0.0713,-0.0697,-0.0699,-0.07,-0.0701,-0.0867,-0.0869,0,0,0,0,0,0,-0.0538,-0.0536,-0.06,-0.0603,-0.0573,-0.0603,-0.0607,-0.0617,-0.064,-0.0644,-0.0631,-0.063,-0.067,-0.0675,-0.068,-0.0798,-0.0699,-0.0702,-0.0703,-0.0864,-0.0867,-0.087,0,0,0,0,0,0,-0.0536,-0.0544,-0.0598,-0.0574,-0.0582,-0.0605,-0.0616,-0.0618,-0.0628,-0.0651,-0.0655,-0.0639,-0.067,-0.0677,-0.0714,-0.0796,-0.0703,-0.0705,-0.086,-0.0865,-0.0869,-0.0972,0,0,0,0,0,0,-0.0533,-0.0542,-0.0552,-0.0575,-0.0584,-0.061,-0.0617,-0.0619,-0.0638,-0.0638,-0.066,-0.0664,-0.0671,-0.0711,-0.0716,-0.0798,-0.0707,-0.0856,-0.0862,-0.0867,-0.0965,-0.098,-0.0992,0,0,0,0,0,-0.053,-0.0545,-0.0552,-0.056,-0.0596,-0.061,-0.0613,-0.0626,-0.0639,-0.0635,-0.0666,-0.0664,-0.0752,-0.0714,-0.072,-0.0804,-0.0854,-0.0861,-0.0867,-0.0959,-0.0977,-0.0992,0,0,0,0,0,0,-0.0503,-0.0547,-0.0556,-0.058,-0.0592,-0.0612,-0.0622,-0.0632,-0.0653,-0.0663,-0.0681,-0.0687,-0.0764,-0.0759,-0.0717,-0.087,-0.0812,-0.082,-0.088,-0.0896,-0.091,-0.0867,-0.0708,0,0,0,0,0,-0.0506,-0.0534,-0.0558,-0.0577,-0.0586,-0.0605,-0.0617,-0.0625,-0.0649,-0.0657,-0.0676,-0.0722,-0.0797,-0.0821,-0.086,-0.0922,-0.0867,-0.0988,-0.1002,-0.1013,-0.0985,-0.0985,-0.0995,-0.0893,-0.0892,-0.0892,0,0,-0.0505,-0.0531,-0.0548,-0.0575,-0.0589,-0.0597,-0.061,-0.0629,-0.0634,-0.0663,-0.0682,-0.0761,-0.0823,-0.0908,-0.0944,-0.0913,-0.1012,-0.1022,-0.1031,-0.0995,-0.0993,-0.1002,-0.101,-0.0897,-0.0896,-0.0896,0,0,-0.051,-0.0535,-0.0556,-0.0569,-0.0596,-0.0601,-0.0608,-0.0631,-0.0636,-0.0675,-0.0733,-0.084,-0.0901,-0.0982,-0.1033,-0.1137,-0.1085,-0.1181,-0.1214,-0.1218,-0.1225,-0.123,-0.1156,-0.1154,-0.1187,-0.1187,-0.1187,0,-0.0509,-0.0533,-0.0559,-0.0577,-0.059,-0.0602,-0.0611,-0.0617,-0.0648,-0.0662,-0.0685,-0.0875,-0.0936,-0.1085,-0.1149,-0.1169,-0.1127,-0.1151,-0.1232,-0.1236,-0.124,-0.1162,-0.1158,-0.1193,-0.1192,-0.1192,-0.1191,0,-0.0519,-0.0544,-0.0556,-0.0581,-0.059,-0.0603,-0.0615,-0.062,-0.0648,-0.067,-0.08,-0.0923,-0.1043,-0.1122,-0.1174,-0.1288,-0.1233,-0.1248,-0.118,-0.1256,-0.1169,-0.1164,-0.1201,-0.1199,-0.1197,-0.1196,0,0,-0.0516,-0.0556,-0.057,-0.0573,-0.0597,-0.0603,-0.0607,-0.0617,-0.0618,-0.0716,-0.0767,-0.0988,-0.1085,-0.1151,-0.1279,-0.131,-0.1336,-0.1303,-0.1301,-0.1208,-0.128,-0.11,-0.1075,-0.1369,-0.1369,-0.137,-0.1201,0,-0.0517,-0.055,-0.0572,-0.0586,-0.0587,-0.0601,-0.0602,-0.0617,-0.0632,-0.0669,-0.0843,-0.0966,-0.1089,-0.1216,-0.1273,-0.1332,-0.1328,-0.1375,-0.1236,-0.123,-0.1046,-0.1066,-0.1371,-0.1196,-0.1195,-0.1194,-0.1193,0,-0.0522,-0.0537,-0.0563,-0.0575,-0.0581,-0.0593,-0.0586,-0.0605,-0.0646,-0.0678,-0.0828,-0.0934,-0.1113,-0.1179,-0.1271,-0.1297,-0.1289,-0.1295,-0.1289,-0.107,-0.1039,-0.1112,-0.1181,-0.1182,-0.1183,-0.1184,-0.1185,0,-0.0498,-0.0533,-0.0552,-0.0562,-0.0576,-0.0587,-0.0611,-0.0619,-0.0634,-0.0723,-0.0747,-0.093,-0.1055,-0.1105,-0.1153,-0.1227,-0.1127,-0.1226,-0.1027,-0.1011,-0.1177,-0.1173,-0.1206,-0.1206,-0.1206,-0.1207,-0.1207,0,-0.0481,-0.0508,-0.0548,-0.0555,-0.0572,-0.0597,-0.0615,-0.0637,-0.068,-0.0672,-0.0811,-0.0837,-0.1042,-0.1023,-0.1071,-0.0986,-0.1061,-0.0994,-0.0959,-0.1223,-0.1227,-0.117,-0.1168,-0.12,-0.1202,-0.1203,-0.1204,0,-0.0466,-0.0501,-0.0524,-0.0549,-0.0565,-0.0599,-0.0651,-0.0633,-0.0684,-0.0678,-0.0734,-0.0789,-0.0763,-0.0821,-0.0841,-0.0852,-0.0803,-0.0729,-0.0906,-0.0888,-0.071,-0.0716,-0.055,-0.0543,-0.0536,-0.0531,-0.0526,0,-0.0461,-0.0475,-0.0528,-0.0546,-0.0571,-0.0617,-0.0614,-0.0663,-0.0633,-0.0605,-0.0582,-0.057,-0.0585,-0.0433,-0.053,-0.0502,-0.0522,-0.0481,-0.0718,-0.0661,-0.0645,-0.0661,-0.0676,-0.0516,-0.0514,-0.0512,-0.0511,0,-0.0447,-0.0491,-0.0505,-0.053,-0.0546,-0.0545,-0.0551,-0.0541,-0.0534,-0.0558,-0.0415,-0.0386,-0.0285,-0.0322,-0.0244,-0.0259,-0.0531,-0.0416,-0.0435,-0.0658,-0.0618,-0.0611,-0.0633,-0.0488,-0.0491,-0.0493,-0.0495,0,-0.0456,-0.0456,-0.0478,-0.0495,-0.0507,-0.0455,-0.0484,-0.0405,-0.0397,-0.0354,-0.0276,-0.0217,-0.0225,-0.0178,-0.0114,-0.0093,-0.0182,-0.0254,-0.0284,-0.031,-0.032,-0.024,0.0072,0,0,0,0,0,-0.0438,-0.0419,-0.0427,-0.0422,-0.0428,-0.0414,-0.0398,-0.0408,-0.0386,-0.0249,-0.0269,-0.0152,-0.0066,-0.006,-0.0007,-0.0071,-0.0214,-0.0013,-0.0322,-0.0362,-0.0389,-0.0429,0,0,0,0,0,0,-0.0414,-0.0437,-0.0398,-0.0347,-0.0323,-0.0286,-0.0271,-0.026,-0.0204,-0.0189,-0.0149,-0.0118,-0.0062,-0.0069,0.0011,0.0012,-0.0175,0.0012,0.0014,-0.0348,-0.0371,-0.0392,-0.0444,0,0,0,0,0]},{"header":{"parameterUnit":"m.s-1","parameterCategory":2,"la1":30.2991,"la2":30.254,"lo1":-89.0895,"lo2":-89.0444,"dy":0.0017,"dx":0.0017,"nx":28,"ny":28,"refTime":"2023-08-16T09:00:00:Z","depth":"4","parameterNumber":3,"parameterNumberName":"V-component_of_CURRENTS"},"data":[0,0,0,0,0,0,0,0,0,0,0,0,0,0,0,0,0,0,0,0,0,0,0,0,0,0,0,0,0,0,0,0,0,0,0,0,0,0,0,0,0,0,0,0,0,0,0,0,0,0,0,0,0,0,0,0,0,0,0.0065,0.0064,0,0.0001,0.0001,-0.0,0.0007,0.0008,0.0009,0.001,-0.0109,-0.0113,-0.0117,0,0,0,0,0,0,0,0,0,0,0,0,0,0.0168,0.0166,0.0065,0.0064,0.0063,0.0001,0.0,-0.0,0.0007,0.0008,0.001,0.0011,-0.0108,-0.0113,-0.0118,0,0,0,0,0,0,0,0,0,0,0,0,0,0.0115,0.0166,0.0065,0.006,0.0059,0.0002,0.0,-0.0001,0.0007,0.0008,0.001,0.0012,-0.0106,-0.0112,-0.0118,-0.019,0,0,-0.0138,-0.014,0,0,0,0,0,0,0,0,0.0118,0.0111,0.0062,0.0061,0.0059,0.0015,-0.0007,-0.0067,0.0006,0.0026,0.001,0.0012,-0.0074,-0.0082,-0.0098,-0.0196,-0.0201,-0.0138,-0.0142,-0.0145,-0.0147,0,0,0,0,0,0,0,0.0122,0.0114,0.0039,0.0061,0.0059,0.0053,0.0048,-0.0018,-0.0034,0.0024,0.0025,0.0019,-0.0074,-0.0092,-0.0101,-0.0203,-0.0138,-0.0144,-0.0148,-0.015,-0.035,-0.0351,0,0,0,0,0,0,0.013,0.0117,0.0041,0.0037,0.0095,0.005,0.0044,0.0027,-0.0032,-0.0039,0.0017,0.0019,-0.0082,-0.0094,-0.0106,-0.0184,-0.0145,-0.0151,-0.0154,-0.0348,-0.035,-0.0352,0,0,0,0,0,0,0.0133,0.0124,0.0043,0.0077,0.0067,0.0047,0.0027,0.0024,0.0018,-0.0037,-0.0044,0.0015,-0.0082,-0.0097,-0.0183,-0.0188,-0.0153,-0.0159,-0.0346,-0.0349,-0.0351,-0.0347,0,0,0,0,0,0,0.0136,0.0125,0.0111,0.0077,0.0065,0.0011,0.0026,0.0022,0.0011,0.0013,-0.0042,-0.0051,-0.0081,-0.0174,-0.0189,-0.0196,-0.0164,-0.0344,-0.0347,-0.035,-0.0345,-0.0349,-0.0352,0,0,0,0,0,0.0139,0.0108,0.011,0.0101,0.0048,0.001,0.0003,-0.0005,0.001,-0.0003,-0.0055,-0.0049,-0.0201,-0.0182,-0.0199,-0.0208,-0.0343,-0.0347,-0.035,-0.0344,-0.0348,-0.0352,0,0,0,0,0,0,0.0138,0.0105,0.0107,0.0066,0.0045,0.0012,-0.0003,-0.0004,-0.0053,-0.005,-0.0093,-0.0109,-0.0184,-0.0206,-0.0183,-0.0274,-0.0262,-0.0269,-0.0251,-0.0256,-0.0259,-0.0242,-0.0169,0,0,0,0,0,0.0133,0.0108,0.0079,0.0049,0.0041,0.0023,0.0007,0.0004,-0.004,-0.0056,-0.0106,-0.0156,-0.0216,-0.0242,-0.0306,-0.0367,-0.0352,-0.0377,-0.0381,-0.0383,-0.0382,-0.0347,-0.0345,-0.0363,-0.0363,-0.0363,0,0,0.0126,0.0104,0.009,0.0049,0.0035,0.0002,0.0017,-0.0004,-0.0041,-0.0067,-0.0146,-0.0185,-0.0241,-0.0311,-0.0342,-0.0325,-0.0379,-0.0387,-0.0389,-0.0387,-0.035,-0.0347,-0.0345,-0.0365,-0.0365,-0.0364,0,0,0.0097,0.0081,0.0054,0.0032,0.001,-0.0007,-0.001,-0.0048,-0.007,-0.0155,-0.0173,-0.0221,-0.0326,-0.0352,-0.038,-0.0444,-0.0408,-0.0448,-0.044,-0.0406,-0.0403,-0.04,-0.0402,-0.0399,-0.0435,-0.0435,-0.0435,0,0.0092,0.0049,0.0041,0.0007,-0.0018,-0.0011,-0.0048,-0.0078,-0.0145,-0.018,-0.0184,-0.0316,-0.0348,-0.0413,-0.0418,-0.0449,-0.0425,-0.0416,-0.0405,-0.0402,-0.0399,-0.0401,-0.0398,-0.0435,-0.0435,-0.0435,-0.0435,0,0.0046,0.001,-0.0008,-0.0048,-0.0077,-0.0105,-0.014,-0.0173,-0.02,-0.0241,-0.0325,-0.0375,-0.0436,-0.0445,-0.0451,-0.0448,-0.0439,-0.042,-0.0383,-0.0396,-0.04,-0.0396,-0.0435,-0.0435,-0.0435,-0.0435,0,0,0.0032,-0.0027,-0.0035,-0.0063,-0.0107,-0.0136,-0.0192,-0.0251,-0.0284,-0.0349,-0.041,-0.048,-0.0473,-0.0502,-0.0499,-0.0457,-0.0414,-0.041,-0.0408,-0.0392,-0.0345,-0.0365,-0.0364,-0.0365,-0.0364,-0.0363,-0.0362,0,0.0,-0.0067,-0.0095,-0.0162,-0.0198,-0.0219,-0.0273,-0.0322,-0.037,-0.0431,-0.0463,-0.0524,-0.0504,-0.0509,-0.047,-0.0429,-0.04,-0.0417,-0.0352,-0.0352,-0.035,-0.0359,-0.036,-0.036,-0.0359,-0.0358,-0.0358,0,-0.004,-0.0081,-0.015,-0.0217,-0.0234,-0.0274,-0.034,-0.0388,-0.0456,-0.0498,-0.0542,-0.0558,-0.0547,-0.0511,-0.0447,-0.0445,-0.0393,-0.0357,-0.0356,-0.037,-0.0365,-0.0342,-0.0352,-0.0352,-0.0353,-0.0353,-0.0353,0,-0.0044,-0.0123,-0.0178,-0.0204,-0.0276,-0.0311,-0.0344,-0.0411,-0.0453,-0.0522,-0.0547,-0.0566,-0.0552,-0.0494,-0.0434,-0.0411,-0.0357,-0.0325,-0.0318,-0.032,-0.03,-0.0303,-0.0275,-0.0275,-0.0275,-0.0275,-0.0275,0,-0.0073,-0.0125,-0.0182,-0.0214,-0.0274,-0.032,-0.0379,-0.0425,-0.0483,-0.0519,-0.056,-0.0571,-0.0525,-0.0499,-0.0445,-0.0387,-0.0371,-0.0323,-0.0313,-0.0306,-0.0309,-0.0299,-0.0302,-0.0275,-0.0275,-0.0275,-0.0275,0,-0.009,-0.0124,-0.0194,-0.0262,-0.028,-0.0326,-0.0385,-0.0417,-0.0472,-0.0511,-0.0521,-0.0548,-0.0501,-0.0497,-0.0412,-0.0394,-0.0349,-0.0337,-0.0373,-0.0365,-0.0332,-0.0335,-0.031,-0.031,-0.0311,-0.0311,-0.0311,0,-0.0111,-0.0137,-0.0216,-0.0235,-0.0269,-0.0324,-0.0346,-0.0412,-0.0435,-0.0484,-0.0487,-0.0481,-0.0486,-0.0418,-0.0407,-0.0376,-0.0357,-0.036,-0.0304,-0.0339,-0.0332,-0.0334,-0.0337,-0.0312,-0.0312,-0.0312,-0.0312,0,-0.0135,-0.0158,-0.021,-0.0234,-0.0264,-0.0307,-0.0337,-0.0345,-0.0395,-0.0446,-0.043,-0.0431,-0.0406,-0.0381,-0.0388,-0.0354,-0.037,-0.0363,-0.036,-0.0308,-0.0341,-0.0335,-0.0336,-0.0314,-0.0314,-0.0314,-0.0314,0,-0.0145,-0.0181,-0.0209,-0.0226,-0.0253,-0.0258,-0.0295,-0.0294,-0.0322,-0.0362,-0.0347,-0.0362,-0.0373,-0.0371,-0.0368,-0.0361,-0.0324,-0.0301,-0.0301,-0.0299,-0.0301,-0.0342,-0.0306,0,0,0,0,0,-0.0141,-0.015,-0.0177,-0.0201,-0.0217,-0.0207,-0.026,-0.029,-0.032,-0.0291,-0.0319,-0.0299,-0.0304,-0.0323,-0.0304,-0.0366,-0.0334,-0.0348,-0.0308,-0.0323,-0.0321,-0.0327,0,0,0,0,0,0,-0.0139,-0.0164,-0.0172,-0.0143,-0.012,-0.0139,-0.0151,-0.0188,-0.0176,-0.0211,-0.0208,-0.0259,-0.0262,-0.0271,-0.0276,-0.0287,-0.0256,-0.0369,-0.0368,-0.0324,-0.0322,-0.0321,-0.0326,0,0,0,0,0]}]]